Location: Casilda
(33.0440°S, 61.1680°W)
Time: 22:43:52
(UTC-03:00)

ISS - Pass Details

Date: 19 June 2018
Orbit: 402 x 406 km, 51.6° (Epoch: 18 June)

Event Time Altitude Azimuth Distance (km) Brightness Sun altitude
Exits shadow 06:07:36 20° 17° (NNE) 1,007 -1.6 -24.3°
Drops below altitude 10° 06:08:49 10° 26° (NNE) 1,466 -0.5 -24.0°
Sets 06:10:56 0° 32° (NNE) 2,319 0.7 -23.6°
